Weather Service Report


425 
ASUS45 KREV 220610
RWRNV 
NEVADA REGIONAL WEATHER ROUNDUP
NATIONAL WEATHER SERVICE RENO NV
1000 PM PST SUN DEC 21 2014

NOTE: "FAIR" INDICATES FEW OR NO CLOUDS BELOW 12,000 FEET WITH NO
SIGNIFICANT WEATHER AND/OR OBSTRUCTIONS TO VISIBILITY.

NVZ001-003-004-220700-
WESTERN NEVADA
  
CITY           SKY/WX    TMP DP  RH WIND       PRES   REMARKS
RENO           PTCLDY    52  39  61 NW3       30.30S                  
6HR MIN TEMP:  51; 6HR MAX TEMP:  60;                                

CARSON CITY    FAIR      41  36  81 CALM      30.32R                  
MINDEN         FAIR      37  32  81 SE10      30.32S                  
SLIDE MTN        N/A     36  19  51 N23         N/A                   
PYRAMID LAKE     N/A     55 N/A N/A NW2         N/A                   
FALLON         PTCLDY    55  39  54 W13       30.24S                  
6HR MIN TEMP:  53; 6HR MAX TEMP:  58;                                

LOVELOCK       PTCLDY    54  40  59 W16       30.21F                  
6HR MIN TEMP:  53; 6HR MAX TEMP:  59;                                

HAWTHORNE      CLEAR     43  36  75 E5        30.28R                  
$$

NVZ002-CAZ072-073-220700-
NORTHERN AND CENTRAL SIERRA
  
CITY           SKY/WX    TMP DP  RH WIND       PRES   REMARKS
S. LAKE TAHOE  CLEAR     33  29  85 S5        30.36R                  
6HR MIN TEMP:  33; 6HR MAX TEMP:  51;                                

TRUCKEE        MOCLDY    32  32 100 CALM      30.36R                  
SQUAW VLY 8000   N/A     34  32  93 CALM        N/A                   
SUSANVILLE     CLEAR     52  39  62 W10G17    30.26F                  
BLUE CANYON    CLEAR     45  41  86 CALM      30.34S                  
MAMMOTH LAKES  FAIR      43  21  42 N5        30.35S                  
BRIDGEPORT     FAIR      32  25  75 CALM      30.35S                  
$$

NVZ030-031-036-220700-
NORTHERN NEVADA
  
CITY           SKY/WX    TMP DP  RH WIND       PRES   REMARKS
ELKO           LGT RAIN  46  43  89 W12       30.13R                  
6HR MIN TEMP:  45; 6HR MAX TEMP:  47; 6HR PCP:  0.06;                

WINNEMUCCA     MOCLDY    51  40  65 W15       30.18F                  
6HR MIN TEMP:  50; 6HR MAX TEMP:  54; 6HR PCP: TRACE;                

WENDOVER       CLOUDY    48  36  61 NW28G33   30.03S                  
$$

NVZ035-037-220700-
CENTRAL NEVADA
  
CITY           SKY/WX    TMP DP  RH WIND       PRES   REMARKS
ELY            CLOUDY    46  38  73 NW5       30.18R                  
6HR MIN TEMP:  44; 6HR MAX TEMP:  49; 6HR PCP: TRACE;                

EUREKA           N/A     46  37  71 W18G32    30.18R                  
6HR MIN TEMP:  44; 6HR MAX TEMP:  50;                                

$$

NVZ013-014-220700-
SOUTH CENTRAL NEVADA
  
CITY           SKY/WX    TMP DP  RH WIND       PRES   REMARKS
TONOPAH        CLEAR     50  37  61 NW25G32   30.24S                  
6HR MIN TEMP:  46; 6HR MAX TEMP:  54;                                

$$

NVZ017-020-022-220700-
SOUTHERN NEVADA
  
CITY           SKY/WX    TMP DP  RH WIND       PRES   REMARKS
LAS VEGAS      CLOUDY    50  39  66 S10       30.05R                  
6HR MIN TEMP:  50; 6HR MAX TEMP:  55;                                

N. LAS VEGAS   MOCLDY    47  37  68 SE5       30.08R                  
6HR MIN TEMP:  45; 6HR MAX TEMP:  54;                                

NELLIS AFB     MOCLDY    49  41  74 E14       30.08S                  
6HR MIN TEMP:  45; 6HR MAX TEMP:  55;                                

HENDERSON      MOCLDY    50  38  63 S9        30.11R                  
6HR MIN TEMP:  48; 6HR MAX TEMP:  54;                                

MERCURY        MOCLDY    41  37  86 CALM      30.15F                  
6HR MIN TEMP:  41; 6HR MAX TEMP:  50;                                

$$

Return to Home page


Western Regional Climate Center, wrcc@dri.edu